Year,Month,Day,Hour,Minute,Value (Times are PST for windgust in km/hr)
2018,03,22,00,05,1.60
2018,03,22,00,06,3.20
2018,03,22,00,07,1.60
2018,03,22,00,08,1.60
2018,03,22,00,10,4.80
2018,03,22,00,11,3.20
2018,03,22,00,12,4.80
2018,03,22,00,13,3.20
2018,03,22,00,14,3.20
2018,03,22,00,17,1.60
2018,03,22,00,18,3.20
2018,03,22,00,19,3.20
2018,03,22,00,20,4.80
2018,03,22,00,21,3.20
2018,03,22,00,22,4.80
2018,03,22,00,23,3.20
2018,03,22,00,25,3.20
2018,03,22,00,26,4.80
2018,03,22,00,27,3.20
2018,03,22,00,28,4.80
2018,03,22,00,29,6.40
2018,03,22,00,30,4.80
2018,03,22,00,31,4.80
2018,03,22,00,32,3.20
2018,03,22,00,33,6.40
2018,03,22,00,34,4.80
2018,03,22,00,35,3.20
2018,03,22,00,36,4.80
2018,03,22,00,37,4.80
2018,03,22,00,38,6.40
2018,03,22,00,39,3.20
2018,03,22,00,40,4.80
2018,03,22,00,41,4.80
2018,03,22,00,42,3.20
2018,03,22,00,43,4.80
2018,03,22,00,44,4.80
2018,03,22,00,45,4.80
2018,03,22,00,46,3.20
2018,03,22,00,47,3.20
2018,03,22,01,03,1.60
2018,03,22,01,04,1.60
2018,03,22,01,23,1.60
2018,03,22,01,24,1.60
2018,03,22,01,25,3.20
2018,03,22,01,26,3.20
2018,03,22,01,27,3.20
2018,03,22,01,35,1.60
2018,03,22,01,36,3.20
2018,03,22,01,37,3.20
2018,03,22,01,39,4.80
2018,03,22,01,40,6.40
2018,03,22,01,41,4.80
2018,03,22,01,42,4.80
2018,03,22,01,43,4.80
2018,03,22,01,44,4.80
2018,03,22,01,45,6.40
2018,03,22,01,46,4.80
2018,03,22,01,47,4.80
2018,03,22,01,48,4.80
2018,03,22,01,49,4.80
2018,03,22,01,50,3.20
2018,03,22,01,51,4.80
2018,03,22,01,52,3.20
2018,03,22,01,53,1.60
2018,03,22,02,00,3.20
2018,03,22,02,01,3.20
2018,03,22,02,02,3.20
2018,03,22,02,03,1.60
2018,03,22,02,04,3.20
2018,03,22,02,05,4.80
2018,03,22,02,06,4.80
2018,03,22,02,07,4.80
2018,03,22,02,08,4.80
2018,03,22,02,09,3.20
2018,03,22,02,10,1.60
2018,03,22,02,12,3.20
2018,03,22,02,13,1.60
2018,03,22,02,17,3.20
2018,03,22,02,18,3.20
2018,03,22,02,28,1.60
2018,03,22,02,30,3.20
2018,03,22,02,31,3.20
2018,03,22,02,32,1.60
2018,03,22,02,34,3.20
2018,03,22,02,35,3.20
2018,03,22,02,36,3.20
2018,03,22,02,37,3.20
2018,03,22,02,38,3.20
2018,03,22,02,39,4.80
2018,03,22,02,40,4.80
2018,03,22,02,41,6.40
2018,03,22,02,42,4.80
2018,03,22,02,43,4.80
2018,03,22,02,44,4.80
2018,03,22,02,45,1.60
2018,03,22,02,46,3.20
2018,03,22,02,47,3.20
2018,03,22,02,48,3.20
2018,03,22,02,49,3.20
2018,03,22,02,50,3.20
2018,03,22,02,51,3.20
2018,03,22,02,52,1.60
2018,03,22,02,53,1.60
2018,03,22,02,54,1.60
2018,03,22,02,55,1.60
2018,03,22,02,56,1.60
2018,03,22,02,57,3.20
2018,03,22,03,00,1.60
2018,03,22,03,01,4.80
2018,03,22,03,02,3.20
2018,03,22,03,04,1.60
2018,03,22,03,05,4.80
2018,03,22,03,06,4.80
2018,03,22,03,07,4.80
2018,03,22,03,08,4.80
2018,03,22,03,09,8.10
2018,03,22,03,10,4.80
2018,03,22,03,11,1.60
2018,03,22,03,12,6.40
2018,03,22,03,13,6.40
2018,03,22,03,14,8.10
2018,03,22,03,15,9.60
2018,03,22,03,16,8.10
2018,03,22,03,17,9.60
2018,03,22,03,18,11.30
2018,03,22,03,19,9.60
2018,03,22,03,20,6.40
2018,03,22,03,21,8.10
2018,03,22,03,22,9.60
2018,03,22,03,23,6.40
2018,03,22,03,24,3.20
2018,03,22,03,26,1.60
2018,03,22,03,27,3.20
2018,03,22,03,28,4.80
2018,03,22,03,29,6.40
2018,03,22,03,30,4.80
2018,03,22,03,31,3.20
2018,03,22,03,32,6.40
2018,03,22,03,33,8.10
2018,03,22,03,34,6.40
2018,03,22,03,35,6.40
2018,03,22,03,36,6.40
2018,03,22,03,37,3.20
2018,03,22,03,38,4.80
2018,03,22,03,39,4.80
2018,03,22,03,40,4.80
2018,03,22,03,42,1.60
2018,03,22,03,43,1.60
2018,03,22,03,46,1.60
2018,03,22,03,47,3.20
2018,03,22,03,48,3.20
2018,03,22,03,49,4.80
2018,03,22,03,50,6.40
2018,03,22,03,51,4.80
2018,03,22,03,52,4.80
2018,03,22,03,53,3.20
2018,03,22,03,54,6.40
2018,03,22,03,55,3.20
2018,03,22,03,56,4.80
2018,03,22,03,57,4.80
2018,03,22,03,58,6.40
2018,03,22,03,59,3.20
2018,03,22,04,00,3.20
2018,03,22,04,01,3.20
2018,03,22,04,02,6.40
2018,03,22,04,03,3.20
2018,03,22,04,04,1.60
2018,03,22,04,05,3.20
2018,03,22,04,06,3.20
2018,03,22,04,07,1.60
2018,03,22,04,08,3.20
2018,03,22,04,09,4.80
2018,03,22,04,10,3.20
2018,03,22,04,11,3.20
2018,03,22,04,12,3.20
2018,03,22,04,15,1.60
2018,03,22,04,16,6.40
2018,03,22,04,17,8.10
2018,03,22,04,18,8.10
2018,03,22,04,19,6.40
2018,03,22,04,20,4.80
2018,03,22,04,21,4.80
2018,03,22,04,22,4.80
2018,03,22,04,23,4.80
2018,03,22,04,24,3.20
2018,03,22,04,35,6.40
2018,03,22,04,36,4.80
2018,03,22,04,37,6.40
2018,03,22,04,38,6.40
2018,03,22,04,39,9.60
2018,03,22,04,40,9.60
2018,03,22,04,41,6.40
2018,03,22,04,42,9.60
2018,03,22,04,43,11.30
2018,03,22,04,44,8.10
2018,03,22,04,45,9.60
2018,03,22,04,46,11.30
2018,03,22,04,47,11.30
2018,03,22,04,48,9.60
2018,03,22,04,49,11.30
2018,03,22,04,50,11.30
2018,03,22,04,51,11.30
2018,03,22,04,52,9.60
2018,03,22,04,53,11.30
2018,03,22,04,54,11.30
2018,03,22,04,55,8.10
2018,03,22,04,56,16.10
2018,03,22,04,57,17.70
2018,03,22,04,58,11.30
2018,03,22,04,59,8.10
2018,03,22,05,00,9.60
2018,03,22,05,01,12.90
2018,03,22,05,02,8.10
2018,03,22,05,03,9.60
2018,03,22,05,04,11.30
2018,03,22,05,05,8.10
2018,03,22,05,06,9.60
2018,03,22,05,07,8.10
2018,03,22,05,08,9.60
2018,03,22,05,09,9.60
2018,03,22,05,10,8.10
2018,03,22,05,11,6.40
2018,03,22,05,12,6.40
2018,03,22,05,13,8.10
2018,03,22,05,14,6.40
2018,03,22,05,15,6.40
2018,03,22,05,16,6.40
2018,03,22,05,17,6.40
2018,03,22,05,18,11.30
2018,03,22,05,19,11.30
2018,03,22,05,20,6.40
2018,03,22,05,21,6.40
2018,03,22,05,22,8.10
2018,03,22,05,23,8.10
2018,03,22,05,24,11.30
2018,03,22,05,25,14.50
2018,03,22,05,26,9.60
2018,03,22,05,27,8.10
2018,03,22,05,28,9.60
2018,03,22,05,29,11.30
2018,03,22,05,30,9.60
2018,03,22,05,31,9.60
2018,03,22,05,32,11.30
2018,03,22,05,33,4.80
2018,03,22,05,34,6.40
2018,03,22,05,35,6.40
2018,03,22,05,36,9.60
2018,03,22,05,37,6.40
2018,03,22,05,38,6.40
2018,03,22,05,39,8.10
2018,03,22,05,40,6.40
2018,03,22,05,41,9.60
2018,03,22,05,42,8.10
2018,03,22,05,43,6.40
2018,03,22,05,44,6.40
2018,03,22,05,45,4.80
2018,03,22,05,46,6.40
2018,03,22,05,47,4.80
2018,03,22,05,50,4.80
2018,03,22,05,51,3.20
2018,03,22,05,52,3.20
2018,03,22,05,53,3.20
2018,03,22,05,54,3.20
2018,03,22,05,57,6.40
2018,03,22,05,58,4.80
2018,03,22,05,59,6.40
2018,03,22,06,00,6.40
2018,03,22,06,01,3.20
2018,03,22,06,02,3.20
2018,03,22,06,03,3.20
2018,03,22,06,04,3.20
2018,03,22,06,05,4.80
2018,03,22,06,06,4.80
2018,03,22,06,07,3.20
2018,03,22,06,10,4.80
2018,03,22,06,11,6.40
2018,03,22,06,12,4.80
2018,03,22,06,13,4.80
2018,03,22,06,14,3.20
2018,03,22,06,15,3.20
2018,03,22,06,16,4.80
2018,03,22,06,17,4.80
2018,03,22,06,18,3.20
2018,03,22,06,19,4.80
2018,03,22,06,20,1.60
2018,03,22,06,21,3.20
2018,03,22,06,22,3.20
2018,03,22,06,25,1.60
2018,03,22,06,29,1.60
2018,03,22,06,30,3.20
2018,03,22,06,31,3.20
2018,03,22,06,32,6.40
2018,03,22,06,33,8.10
2018,03,22,06,34,6.40
2018,03,22,06,35,3.20
2018,03,22,06,36,4.80
2018,03,22,06,37,6.40
2018,03,22,06,38,6.40
2018,03,22,06,39,6.40
2018,03,22,06,40,6.40
2018,03,22,06,41,4.80
2018,03,22,06,42,4.80
2018,03,22,06,43,4.80
2018,03,22,06,44,6.40
2018,03,22,06,45,8.10
2018,03,22,06,46,8.10
2018,03,22,06,47,6.40
2018,03,22,06,48,8.10
2018,03,22,06,49,4.80
2018,03,22,06,50,4.80
2018,03,22,06,51,4.80
2018,03,22,06,52,3.20
2018,03,22,06,53,3.20
2018,03,22,06,54,3.20
2018,03,22,06,55,3.20
2018,03,22,06,56,3.20
2018,03,22,06,57,1.60
2018,03,22,06,59,3.20
2018,03,22,07,00,1.60
2018,03,22,07,01,1.60
2018,03,22,07,03,1.60
2018,03,22,07,08,1.60
2018,03,22,07,09,3.20
2018,03,22,08,14,6.40
2018,03,22,08,15,6.40
2018,03,22,08,16,4.80
2018,03,22,08,17,4.80
2018,03,22,08,18,3.20
2018,03,22,08,19,4.80
2018,03,22,08,20,4.80
2018,03,22,08,21,3.20
2018,03,22,08,22,6.40
2018,03,22,08,23,6.40
2018,03,22,08,24,4.80
2018,03,22,08,25,3.20
2018,03,22,08,26,1.60
2018,03,22,08,27,3.20
2018,03,22,08,28,4.80
2018,03,22,08,29,4.80
2018,03,22,08,30,3.20
2018,03,22,08,31,3.20
2018,03,22,08,32,4.80
2018,03,22,08,33,3.20
2018,03,22,08,35,3.20
2018,03,22,08,36,3.20
2018,03,22,08,37,1.60
2018,03,22,08,42,3.20
2018,03,22,08,43,3.20
2018,03,22,08,44,3.20
2018,03,22,08,45,3.20
2018,03,22,08,46,4.80
2018,03,22,08,47,3.20
2018,03,22,08,48,3.20
2018,03,22,08,49,6.40
2018,03,22,08,50,4.80
2018,03,22,08,51,4.80
2018,03,22,08,52,3.20
2018,03,22,08,53,6.40
2018,03,22,08,54,4.80
2018,03,22,08,55,6.40
2018,03,22,08,56,4.80
2018,03,22,08,57,6.40
2018,03,22,08,58,4.80
2018,03,22,08,59,1.60
2018,03,22,09,01,3.20
2018,03,22,09,02,4.80
2018,03,22,09,03,1.60
2018,03,22,09,04,3.20
2018,03,22,09,05,3.20
2018,03,22,09,06,4.80
2018,03,22,09,07,4.80
2018,03,22,09,08,3.20
2018,03,22,09,09,1.60
2018,03,22,09,10,3.20
2018,03,22,09,11,3.20
2018,03,22,09,12,4.80
2018,03,22,09,13,6.40
2018,03,22,09,14,6.40
2018,03,22,09,15,4.80
2018,03,22,09,16,4.80
2018,03,22,09,17,1.60
2018,03,22,09,19,1.60
2018,03,22,09,20,3.20
2018,03,22,09,23,1.60
2018,03,22,09,24,3.20
2018,03,22,09,25,1.60
2018,03,22,09,26,3.20
2018,03,22,09,27,3.20
2018,03,22,09,38,4.80
2018,03,22,09,39,6.40
2018,03,22,09,40,6.40
2018,03,22,09,41,4.80
2018,03,22,09,42,6.40
2018,03,22,09,43,6.40
2018,03,22,09,44,4.80
2018,03,22,09,45,4.80
2018,03,22,09,49,1.60
2018,03,22,09,50,3.20
2018,03,22,09,51,4.80
2018,03,22,09,52,6.40
2018,03,22,09,53,4.80
2018,03,22,09,54,3.20
2018,03,22,09,55,6.40
2018,03,22,09,56,9.60
2018,03,22,09,57,8.10
2018,03,22,09,58,6.40
2018,03,22,09,59,4.80
2018,03,22,10,00,4.80
2018,03,22,10,01,6.40
2018,03,22,10,02,3.20
2018,03,22,10,03,8.10
2018,03,22,10,04,9.60
2018,03,22,10,05,12.90
2018,03,22,10,06,14.50
2018,03,22,10,07,12.90
2018,03,22,10,08,8.10
2018,03,22,10,09,6.40
2018,03,22,10,10,4.80
2018,03,22,10,11,8.10
2018,03,22,10,12,6.40
2018,03,22,10,13,8.10
2018,03,22,10,14,8.10
2018,03,22,10,15,6.40
2018,03,22,10,16,8.10
2018,03,22,10,17,8.10
2018,03,22,10,18,3.20
2018,03,22,10,19,6.40
2018,03,22,10,20,6.40
2018,03,22,10,21,3.20
2018,03,22,10,22,6.40
2018,03,22,10,23,6.40
2018,03,22,10,24,6.40
2018,03,22,10,25,4.80
2018,03,22,10,26,4.80
2018,03,22,10,27,6.40
2018,03,22,10,28,9.60
2018,03,22,10,29,8.10
2018,03,22,10,30,11.30
2018,03,22,10,31,9.60
2018,03,22,10,32,11.30
2018,03,22,10,33,11.30
2018,03,22,10,34,9.60
2018,03,22,10,35,8.10
2018,03,22,10,36,4.80
2018,03,22,10,37,6.40
2018,03,22,10,38,9.60
2018,03,22,10,39,9.60
2018,03,22,10,40,3.20
2018,03,22,10,41,6.40
2018,03,22,10,42,20.90
2018,03,22,10,43,14.50
2018,03,22,10,44,11.30
2018,03,22,10,45,8.10
2018,03,22,10,46,16.10
2018,03,22,10,47,6.40
2018,03,22,10,48,9.60
2018,03,22,10,49,8.10
2018,03,22,10,50,8.10
2018,03,22,10,51,6.40
2018,03,22,10,52,4.80
2018,03,22,10,53,3.20
2018,03,22,10,54,9.60
2018,03,22,10,55,11.30
2018,03,22,10,56,9.60
2018,03,22,10,57,9.60
2018,03,22,10,58,8.10
2018,03,22,10,59,12.90
2018,03,22,11,00,16.10
2018,03,22,11,01,9.60
2018,03,22,11,02,8.10
2018,03,22,11,03,8.10
2018,03,22,11,04,9.60
2018,03,22,11,05,4.80
2018,03,22,11,06,11.30
2018,03,22,11,07,14.50
2018,03,22,11,08,9.60
2018,03,22,11,09,9.60
2018,03,22,11,10,9.60
2018,03,22,11,11,8.10
2018,03,22,11,12,12.90
2018,03,22,11,13,11.30
2018,03,22,11,14,9.60
2018,03,22,11,15,9.60
2018,03,22,11,16,9.60
2018,03,22,11,17,14.50
2018,03,22,11,18,16.10
2018,03,22,11,19,14.50
2018,03,22,11,20,8.10
2018,03,22,11,21,8.10
2018,03,22,11,22,6.40
2018,03,22,11,23,6.40
2018,03,22,11,24,11.30
2018,03,22,11,25,8.10
2018,03,22,11,26,4.80
2018,03,22,11,27,11.30
2018,03,22,11,28,6.40
2018,03,22,11,29,11.30
2018,03,22,11,30,9.60
2018,03,22,11,31,6.40
2018,03,22,11,32,9.60
2018,03,22,11,33,16.10
2018,03,22,11,34,14.50
2018,03,22,11,35,9.60
2018,03,22,11,36,6.40
2018,03,22,11,37,11.30
2018,03,22,11,38,9.60
2018,03,22,11,39,6.40
2018,03,22,11,40,8.10
2018,03,22,11,41,8.10
2018,03,22,11,42,6.40
2018,03,22,11,43,8.10
2018,03,22,11,44,8.10
2018,03,22,11,45,8.10
2018,03,22,11,46,11.30
2018,03,22,11,47,11.30
2018,03,22,11,48,9.60
2018,03,22,11,49,8.10
2018,03,22,11,50,8.10
2018,03,22,11,51,6.40
2018,03,22,11,52,6.40
2018,03,22,11,53,9.60
2018,03,22,11,54,8.10
2018,03,22,11,55,9.60
2018,03,22,11,56,14.50
2018,03,22,11,57,11.30
2018,03,22,11,58,8.10
2018,03,22,11,59,11.30
2018,03,22,12,00,11.30
2018,03,22,12,01,9.60
2018,03,22,12,02,12.90
2018,03,22,12,03,16.10
2018,03,22,12,04,9.60
2018,03,22,12,05,11.30
2018,03,22,12,06,9.60
2018,03,22,12,07,11.30
2018,03,22,12,08,17.70
2018,03,22,12,09,17.70
2018,03,22,12,10,16.10
2018,03,22,12,11,24.20
2018,03,22,12,12,17.70
2018,03,22,12,13,17.70
2018,03,22,12,14,19.30
2018,03,22,12,15,22.50
2018,03,22,12,16,27.40
2018,03,22,12,17,25.70
2018,03,22,12,18,25.70
2018,03,22,12,19,22.50
2018,03,22,12,20,20.90
2018,03,22,12,21,17.70
2018,03,22,12,22,17.70
2018,03,22,12,23,16.10
2018,03,22,12,24,17.70
2018,03,22,12,25,11.30
2018,03,22,12,26,11.30
2018,03,22,12,27,22.50
2018,03,22,12,28,16.10
2018,03,22,12,29,17.70
2018,03,22,12,30,19.30
2018,03,22,12,31,14.50
2018,03,22,12,32,16.10
2018,03,22,12,33,17.70
2018,03,22,12,34,20.90
2018,03,22,12,35,17.70
2018,03,22,12,36,14.50
2018,03,22,12,37,16.10
2018,03,22,12,38,17.70
2018,03,22,12,39,11.30
2018,03,22,12,40,11.30
2018,03,22,12,41,8.10
2018,03,22,12,42,6.40
2018,03,22,12,43,8.10
2018,03,22,12,44,8.10
2018,03,22,12,45,11.30
2018,03,22,12,46,11.30
2018,03,22,12,47,11.30
2018,03,22,12,48,12.90
2018,03,22,12,49,9.60
2018,03,22,12,50,6.40
2018,03,22,12,51,8.10
2018,03,22,12,52,6.40
2018,03,22,12,53,9.60
2018,03,22,12,54,8.10
2018,03,22,12,55,9.60
2018,03,22,12,56,8.10
2018,03,22,12,57,9.60
2018,03,22,12,58,8.10
2018,03,22,12,59,6.40
2018,03,22,13,00,8.10
2018,03,22,13,01,8.10
2018,03,22,13,02,8.10
2018,03,22,13,03,11.30
2018,03,22,13,04,12.90
2018,03,22,13,05,8.10
2018,03,22,13,06,8.10
2018,03,22,13,07,6.40
2018,03,22,13,08,4.80
2018,03,22,13,09,6.40
2018,03,22,13,10,4.80
2018,03,22,13,11,9.60
2018,03,22,13,12,8.10
2018,03,22,13,13,8.10
2018,03,22,13,14,9.60
2018,03,22,13,15,8.10
2018,03,22,13,16,8.10
2018,03,22,13,17,4.80
2018,03,22,13,18,4.80
2018,03,22,13,19,1.60
2018,03,22,13,22,3.20
2018,03,22,13,23,1.60
2018,03,22,13,25,4.80
2018,03,22,13,26,4.80
2018,03,22,13,27,1.60
2018,03,22,13,28,4.80
2018,03,22,13,29,6.40
2018,03,22,13,33,3.20
2018,03,22,13,34,3.20
2018,03,22,13,35,1.60
2018,03,22,13,36,3.20
2018,03,22,13,37,1.60
2018,03,22,13,38,1.60
2018,03,22,13,39,3.20
2018,03,22,13,40,8.10
2018,03,22,13,41,14.50
2018,03,22,13,42,6.40
2018,03,22,13,43,6.40
2018,03,22,13,44,6.40
2018,03,22,13,45,4.80
2018,03,22,13,46,6.40
2018,03,22,13,47,4.80
2018,03,22,13,48,6.40
2018,03,22,13,49,8.10
2018,03,22,13,50,8.10
2018,03,22,13,51,8.10
2018,03,22,13,52,6.40
2018,03,22,13,53,4.80
2018,03,22,13,54,3.20
2018,03,22,13,55,6.40
2018,03,22,13,56,4.80
2018,03,22,13,57,1.60
2018,03,22,13,58,1.60
2018,03,22,13,59,3.20
2018,03,22,14,00,6.40
2018,03,22,14,01,3.20
2018,03,22,14,02,9.60
2018,03,22,14,03,11.30
2018,03,22,14,04,11.30
2018,03,22,14,05,22.50
2018,03,22,14,06,37.00
2018,03,22,14,07,37.00
2018,03,22,14,08,22.50
2018,03,22,14,09,20.90
2018,03,22,14,10,29.00
2018,03,22,14,11,24.20
2018,03,22,14,12,16.10
2018,03,22,14,13,16.10
2018,03,22,14,14,19.30
2018,03,22,14,15,19.30
2018,03,22,14,16,19.30
2018,03,22,14,17,16.10
2018,03,22,14,18,14.50
2018,03,22,14,19,8.10
2018,03,22,14,20,12.90
2018,03,22,14,21,12.90
2018,03,22,14,22,14.50
2018,03,22,14,23,11.30
2018,03,22,14,24,6.40
2018,03,22,14,25,8.10
2018,03,22,14,26,9.60
2018,03,22,14,27,8.10
2018,03,22,14,28,16.10
2018,03,22,14,29,8.10
2018,03,22,14,30,11.30
2018,03,22,14,31,17.70
2018,03,22,14,32,11.30
2018,03,22,14,33,11.30
2018,03,22,14,34,16.10
2018,03,22,14,35,17.70
2018,03,22,14,36,6.40
2018,03,22,14,37,8.10
2018,03,22,14,38,14.50
2018,03,22,14,39,14.50
2018,03,22,14,40,9.60
2018,03,22,14,41,11.30
2018,03,22,14,42,16.10
2018,03,22,14,43,22.50
2018,03,22,14,44,22.50
2018,03,22,14,45,29.00
2018,03,22,14,46,30.60
2018,03,22,14,47,40.20
2018,03,22,14,48,19.30
2018,03,22,14,49,29.00
2018,03,22,14,50,30.60
2018,03,22,14,51,27.40
2018,03,22,14,52,29.00
2018,03,22,14,53,24.20
2018,03,22,14,54,22.50
2018,03,22,14,55,30.60
2018,03,22,14,56,30.60
2018,03,22,14,57,32.20
2018,03,22,14,58,25.70
2018,03,22,14,59,20.90
2018,03,22,15,00,20.90
2018,03,22,15,01,24.20
2018,03,22,15,02,25.70
2018,03,22,15,03,22.50
2018,03,22,15,04,20.90
2018,03,22,15,05,24.20
2018,03,22,15,06,20.90
2018,03,22,15,07,29.00
2018,03,22,15,08,24.20
2018,03,22,15,09,20.90
2018,03,22,15,10,17.70
2018,03,22,15,11,17.70
2018,03,22,15,12,22.50
2018,03,22,15,13,24.20
2018,03,22,15,14,20.90
2018,03,22,15,15,14.50
2018,03,22,15,16,17.70
2018,03,22,15,17,17.70
2018,03,22,15,18,24.20
2018,03,22,15,19,22.50
2018,03,22,15,20,19.30
2018,03,22,15,21,22.50
2018,03,22,15,22,20.90
2018,03,22,15,23,19.30
2018,03,22,15,24,24.20
2018,03,22,15,25,20.90
2018,03,22,15,26,16.10
2018,03,22,15,27,14.50
2018,03,22,15,28,17.70
2018,03,22,15,29,14.50
2018,03,22,15,30,11.30
2018,03,22,15,31,14.50
2018,03,22,15,32,16.10
2018,03,22,15,33,16.10
2018,03,22,15,34,8.10
2018,03,22,15,35,11.30
2018,03,22,15,36,11.30
2018,03,22,15,37,14.50
2018,03,22,15,38,11.30
2018,03,22,15,39,14.50
2018,03,22,15,40,16.10
2018,03,22,15,41,8.10
2018,03,22,15,42,11.30
2018,03,22,15,43,14.50
2018,03,22,15,44,16.10
2018,03,22,15,45,12.90
2018,03,22,15,46,11.30
2018,03,22,15,47,9.60
2018,03,22,15,48,6.40
2018,03,22,15,49,8.10
2018,03,22,15,50,9.60
2018,03,22,15,51,11.30
2018,03,22,15,52,22.50
2018,03,22,15,53,17.70
2018,03,22,15,54,17.70
2018,03,22,15,55,29.00
2018,03,22,15,56,25.70
2018,03,22,15,57,22.50
2018,03,22,15,58,29.00
2018,03,22,15,59,24.20
2018,03,22,16,00,25.70
2018,03,22,16,01,22.50
2018,03,22,16,02,30.60
2018,03,22,16,03,27.40
2018,03,22,16,04,29.00
2018,03,22,16,05,22.50
2018,03,22,16,06,24.20
2018,03,22,16,07,20.90
2018,03,22,16,08,19.30
2018,03,22,16,09,24.20
2018,03,22,16,10,32.20
2018,03,22,16,11,41.80
2018,03,22,16,12,46.70
2018,03,22,16,13,35.40
2018,03,22,16,14,38.60
2018,03,22,16,15,32.20
2018,03,22,16,16,30.60
2018,03,22,16,17,30.60
2018,03,22,16,18,32.20
2018,03,22,16,19,27.40
2018,03,22,16,20,27.40
2018,03,22,16,21,25.70
2018,03,22,16,22,19.30
2018,03,22,16,23,16.10
2018,03,22,16,24,14.50
2018,03,22,16,25,16.10
2018,03,22,16,26,17.70
2018,03,22,16,27,16.10
2018,03,22,16,28,9.60
2018,03,22,16,29,11.30
2018,03,22,16,30,9.60
2018,03,22,16,31,8.10
2018,03,22,16,32,8.10
2018,03,22,16,33,6.40
2018,03,22,16,34,3.20
2018,03,22,16,35,3.20
2018,03,22,16,36,11.30
2018,03,22,16,37,16.10
2018,03,22,16,38,9.60
2018,03,22,16,39,11.30
2018,03,22,16,40,11.30
2018,03,22,16,41,8.10
2018,03,22,16,42,6.40
2018,03,22,16,43,14.50
2018,03,22,16,44,11.30
2018,03,22,16,45,17.70
2018,03,22,16,46,24.20
2018,03,22,16,47,24.20
2018,03,22,16,48,20.90
2018,03,22,16,49,16.10
2018,03,22,16,50,16.10
2018,03,22,16,51,17.70
2018,03,22,16,52,14.50
2018,03,22,16,53,16.10
2018,03,22,16,54,19.30
2018,03,22,16,55,19.30
2018,03,22,16,56,17.70
2018,03,22,16,57,24.20
2018,03,22,16,58,19.30
2018,03,22,16,59,9.60
2018,03,22,17,00,17.70
2018,03,22,17,01,25.70
2018,03,22,17,02,20.90
2018,03,22,17,03,17.70
2018,03,22,17,04,20.90
2018,03,22,17,05,16.10
2018,03,22,17,06,14.50
2018,03,22,17,07,16.10
2018,03,22,17,08,19.30
2018,03,22,17,09,16.10
2018,03,22,17,10,29.00
2018,03,22,17,11,25.70
2018,03,22,17,12,9.60
2018,03,22,17,13,20.90
2018,03,22,17,14,20.90
2018,03,22,17,15,14.50
2018,03,22,17,16,11.30
2018,03,22,17,17,24.20
2018,03,22,17,18,24.20
2018,03,22,17,19,20.90
2018,03,22,17,20,19.30
2018,03,22,17,21,16.10
2018,03,22,17,22,24.20
2018,03,22,17,23,14.50
2018,03,22,17,24,9.60
2018,03,22,17,25,14.50
2018,03,22,17,26,11.30
2018,03,22,17,27,17.70
2018,03,22,17,28,19.30
2018,03,22,17,29,24.20
2018,03,22,17,30,19.30
2018,03,22,17,31,22.50
2018,03,22,17,32,22.50
2018,03,22,17,33,32.20
2018,03,22,17,34,30.60
2018,03,22,17,35,24.20
2018,03,22,17,36,25.70
2018,03,22,17,37,22.50
2018,03,22,17,38,22.50
2018,03,22,17,39,17.70
2018,03,22,17,40,25.70
2018,03,22,17,41,22.50
2018,03,22,17,42,17.70
2018,03,22,17,43,16.10
2018,03,22,17,44,25.70
2018,03,22,17,45,29.00
2018,03,22,17,46,24.20
2018,03,22,17,47,17.70
2018,03,22,17,48,16.10
2018,03,22,17,49,16.10
2018,03,22,17,50,24.20
2018,03,22,17,51,22.50
2018,03,22,17,52,11.30
2018,03,22,17,53,17.70
2018,03,22,17,54,17.70
2018,03,22,17,55,11.30
2018,03,22,17,56,11.30
2018,03,22,17,57,9.60
2018,03,22,17,58,8.10
2018,03,22,17,59,12.90
2018,03,22,18,00,17.70
2018,03,22,18,01,16.10
2018,03,22,18,02,11.30
2018,03,22,18,03,19.30
2018,03,22,18,04,19.30
2018,03,22,18,05,14.50
2018,03,22,18,06,17.70
2018,03,22,18,07,16.10
2018,03,22,18,08,19.30
2018,03,22,18,09,29.00
2018,03,22,18,10,25.70
2018,03,22,18,11,24.20
2018,03,22,18,12,24.20
2018,03,22,18,13,24.20
2018,03,22,18,14,17.70
2018,03,22,18,15,19.30
2018,03,22,18,16,20.90
2018,03,22,18,17,20.90
2018,03,22,18,18,17.70
2018,03,22,18,19,17.70
2018,03,22,18,20,12.90
2018,03,22,18,21,17.70
2018,03,22,18,22,16.10
2018,03,22,18,23,11.30
2018,03,22,18,24,19.30
2018,03,22,18,25,16.10
2018,03,22,18,26,19.30
2018,03,22,18,27,25.70
2018,03,22,18,28,24.20
2018,03,22,18,29,16.10
2018,03,22,18,30,19.30
2018,03,22,18,31,17.70
2018,03,22,18,32,20.90
2018,03,22,18,33,19.30
2018,03,22,18,34,20.90
2018,03,22,18,35,17.70
2018,03,22,18,36,19.30
2018,03,22,18,37,25.70
2018,03,22,18,38,19.30
2018,03,22,18,39,16.10
2018,03,22,18,40,17.70
2018,03,22,18,41,20.90
2018,03,22,18,42,22.50
2018,03,22,18,43,20.90
2018,03,22,18,44,19.30
2018,03,22,18,45,17.70
2018,03,22,18,46,17.70
2018,03,22,18,47,17.70
2018,03,22,18,48,22.50
2018,03,22,18,49,22.50
2018,03,22,18,50,38.60
2018,03,22,18,51,17.70
2018,03,22,18,52,24.20
2018,03,22,18,53,19.30
2018,03,22,18,54,27.40
2018,03,22,18,55,27.40
2018,03,22,18,56,17.70
2018,03,22,18,57,16.10
2018,03,22,18,58,20.90
2018,03,22,18,59,17.70
2018,03,22,19,00,20.90
2018,03,22,19,01,19.30
2018,03,22,19,02,20.90
2018,03,22,19,03,19.30
2018,03,22,19,04,17.70
2018,03,22,19,05,9.60
2018,03,22,19,06,16.10
2018,03,22,19,07,11.30
2018,03,22,19,08,12.90
2018,03,22,19,09,9.60
2018,03,22,19,10,11.30
2018,03,22,19,11,16.10
2018,03,22,19,12,8.10
2018,03,22,19,13,11.30
2018,03,22,19,14,9.60
2018,03,22,19,15,9.60
2018,03,22,19,16,16.10
2018,03,22,19,17,9.60
2018,03,22,19,18,11.30
2018,03,22,19,19,8.10
2018,03,22,19,20,8.10
2018,03,22,19,21,8.10
2018,03,22,19,22,11.30
2018,03,22,19,23,11.30
2018,03,22,19,24,11.30
2018,03,22,19,25,17.70
2018,03,22,19,26,12.90
2018,03,22,19,27,16.10
2018,03,22,19,28,16.10
2018,03,22,19,29,12.90
2018,03,22,19,30,11.30
2018,03,22,19,31,19.30
2018,03,22,19,32,27.40
2018,03,22,19,33,24.20
2018,03,22,19,34,22.50
2018,03,22,19,35,20.90
2018,03,22,19,36,14.50
2018,03,22,19,37,16.10
2018,03,22,19,38,14.50
2018,03,22,19,39,17.70
2018,03,22,19,40,20.90
2018,03,22,19,41,19.30
2018,03,22,19,42,16.10
2018,03,22,19,43,11.30
2018,03,22,19,44,19.30
2018,03,22,19,45,17.70
2018,03,22,19,46,20.90
2018,03,22,19,47,16.10
2018,03,22,19,48,20.90
2018,03,22,19,49,22.50
2018,03,22,19,50,16.10
2018,03,22,19,51,17.70
2018,03,22,19,52,19.30
2018,03,22,19,53,22.50
2018,03,22,19,54,20.90
2018,03,22,19,55,19.30
2018,03,22,19,56,14.50
2018,03,22,19,57,14.50
2018,03,22,19,58,12.90
2018,03,22,19,59,6.40
2018,03,22,20,00,6.40
2018,03,22,20,01,4.80
2018,03,22,20,02,3.20
2018,03,22,20,03,3.20
2018,03,22,20,04,1.60
2018,03,22,20,11,1.60
2018,03,22,20,12,3.20
2018,03,22,20,13,3.20
2018,03,22,20,14,1.60
2018,03,22,20,15,1.60
2018,03,22,20,16,3.20
2018,03,22,20,17,3.20
2018,03,22,20,18,3.20
2018,03,22,20,19,1.60
2018,03,22,20,21,1.60
2018,03,22,20,22,3.20
2018,03,22,20,23,3.20
2018,03,22,20,24,1.60
2018,03,22,20,25,1.60
2018,03,22,20,30,4.80
2018,03,22,20,31,3.20
2018,03,22,20,32,3.20
2018,03,22,20,33,4.80
2018,03,22,20,34,3.20
2018,03,22,20,36,1.60
2018,03,22,20,39,1.60
2018,03,22,20,40,3.20
2018,03,22,20,41,3.20
2018,03,22,20,42,3.20
2018,03,22,20,43,3.20
2018,03,22,20,44,3.20
2018,03,22,20,45,3.20
2018,03,22,20,46,3.20
2018,03,22,20,47,4.80
2018,03,22,20,48,3.20
2018,03,22,20,49,4.80
2018,03,22,20,50,4.80
2018,03,22,20,51,3.20
2018,03,22,20,52,3.20
2018,03,22,20,53,1.60
2018,03,22,20,54,4.80
2018,03,22,20,55,3.20
2018,03,22,20,56,3.20
2018,03,22,20,57,3.20
2018,03,22,20,58,4.80
2018,03,22,20,59,6.40
2018,03,22,21,00,6.40
2018,03,22,21,01,6.40
2018,03,22,21,02,9.60
2018,03,22,21,03,11.30
2018,03,22,21,04,14.50
2018,03,22,21,05,11.30
2018,03,22,21,06,8.10
2018,03,22,21,07,8.10
2018,03,22,21,08,8.10
2018,03,22,21,09,9.60
2018,03,22,21,10,9.60
2018,03,22,21,11,1.60
2018,03,22,21,12,3.20
2018,03,22,21,13,6.40
2018,03,22,21,14,6.40
2018,03,22,21,15,4.80
2018,03,22,21,16,6.40
2018,03,22,21,17,9.60
2018,03,22,21,18,11.30
2018,03,22,21,19,11.30
2018,03,22,21,20,11.30